User: anonymous
Location: Bothell
(47.7630°N, 122.2040°W)
Time: 20:41:54
(UTC-07:00)
Language:

Oscar 16 - Orbit

View from above orbital plane
View from above orbital plane
View from above satellite
View from above satellite

Ground track
Ground track

The orbit data is extracted from the following two-line orbital elements,

1 20439U 90005D   14292.45282440  .00000367  00000-0  15156-3 0  1527
2 20439 098.5169 227.4970 0011650 147.8019 332.7597 14.32405895292271
Epoch (UTC): 19 October 2014 10:52:04
Eccentricity: 0.0011650
inclination: 98.5169°
perigee height: 775 km
apogee height: 792 km
right ascension of ascending node: 227.4970°
argument of perigee: 147.8019°
revolutions per day: 14.32405895
mean anomaly at epoch: 332.7597°
orbit number at epoch: 29227

The dashed part of the orbit path shows where the satellite is in the earth's shadow,  

DLR